This is the latest recevied weather packets stored in our database for station/object N3DXC. If no packets are shown the sender has not sent any weather packets the latest 10 day(s).
| Time | Temp. | Humidity | Pressure | Rain* | Wind** | Luminosity | Snow |
|---|---|---|---|---|---|---|---|
| 1777389311 | 10.56° C | 87% | 1016.3 hPa | 0 mm | - | - | - |
| 1777389011 | 10.56° C | 87% | 1016.3 hPa | 0 mm | - | - | - |
| 1777388112 | 10.56° C | 86% | 1016.2 hPa | 0 mm | - | - | - |
| 1777387514 | 10.56° C | 86% | 1016.2 hPa | 0 mm | - | - | - |
| 1777386911 | 10.56° C | 86% | 1016.1 hPa | 0 mm | - | - | - |
| 1777386611 | 10° C | 87% | 1016.1 hPa | 0 mm | - | - | - |
| 1777386011 | 10° C | 87% | 1016.1 hPa | 0 mm | - | - | - |
| 1777385711 | 10° C | 88% | 1016.1 hPa | 0 mm | - | - | - |
| 1777385411 | 10° C | 87% | 1016.1 hPa | 0 mm | - | - | - |
| 1777383611 | 9.44° C | 89% | 1016.1 hPa | 1.02 mm | - | - | - |
| 1777383311 | 8.89° C | 88% | 1016.1 hPa | 1.27 mm | - | - | - |
| 1777382710 | 8.89° C | 89% | 1016.1 hPa | 1.27 mm | - | - | - |
| 1777382111 | 8.89° C | 90% | 1016.1 hPa | 1.27 mm | - | - | - |
| 1777381811 | 8.89° C | 91% | 1016.1 hPa | 1.27 mm | - | - | - |
| 1777381211 | 8.89° C | 91% | 1016.3 hPa | 1.02 mm | - | - | - |
| 1777380911 | 8.89° C | 91% | 1016.6 hPa | 1.02 mm | - | - | - |
| 1777380010 | 8.89° C | 89% | 1016.8 hPa | 0.25 mm | - | - | - |
| 1777379711 | 9.44° C | 88% | 1016.5 hPa | 0 mm | - | - | - |
| 1777379112 | 9.44° C | 86% | 1015.7 hPa | 0 mm | - | - | - |
| 1777378811 | 9.44° C | 85% | 1015.4 hPa | 0 mm | - | - | - |
| 1777377912 | 9.44° C | 83% | 1015.4 hPa | 0 mm | - | - | - |
| 1777377612 | 9.44° C | 84% | 1015.5 hPa | 0 mm | - | - | - |
| 1777377311 | 9.44° C | 83% | 1015.6 hPa | 0 mm | - | - | - |
| 1777376414 | 10° C | 83% | 1015.6 hPa | 0 mm | - | - | - |
| 1777375511 | 10° C | 80% | 1015.9 hPa | 0 mm | - | - | - |
* Rain latest hour (hover to see other rain measurements)
** Current wind speed in m/s (hover to see current wind gust speed)